Flag for Germany Weather past 2 weeks in Weyhe, Lower Saxony, Germany

Now
59 °F

Partly sunny.


Feels Like: 56 °F
Forecast: 46 / 56 °F
Wind: 18 mph from West

Location: Bremen Airport

Current Time: Oct 20, 2014 at 10:27:59 AM

Latest Report: Oct 20, 2014 at 9:50 AM


Visibility: N/A

Pressure: 29.89 "Hg

Humidity: 82%

Dew point: 54 °F

Location of WeyheLocation

Historic Weather in Weyhe — Graph

°F

Weyhe temperature yesterday

Maximum temperature yesterday: 73 °F (at 1:50 PM)
Minimum temperature yesterday: 55 °F (at 1:20 AM)
Average temperature yesterday: 62 °F

Past Weeks' High & Low Weather Summary

 TemperatureHumidityPressure
High73 °F (Oct 19, 1:50 PM)100% (Oct 7, 12:50 PM)30.12 "Hg (Oct 7, 12:50 PM)
Low45 °F (Oct 11, 8:50 AM)52% (Oct 6, 2:20 PM)29.50 "Hg (Oct 7, 12:50 PM)
Average57 °F85%29.81 "Hg
* Reported Oct 5 9:20 AM — Oct 20 9:20 AM, Weyhe, Weather by CustomWeather, © 2014

Note: Actual official high and low records may vary slightly from our data, if they occured in-between our weather recording intervals... More about our weather records

Advertising

Weyhe weather history for previous 24 hours

 ConditionsComfort  
Time TempWeatherWind HumidityBarometerVisibility
9:20 AM
Oct 20
57 °FLight rain. Partly sunny.16 mph88%29.89 "HgN/A
8:50 AM57 °FPartly cloudy.16 mph88%29.89 "HgN/A
8:20 AM57 °FPassing clouds.15 mph88%29.86 "HgN/A
7:50 AM57 °FPartly cloudy.14 mph82%29.86 "HgN/A
7:20 AM57 °FPassing clouds.17 mph82%29.86 "HgN/A
6:50 AM59 °FPassing clouds.21 mph82%29.86 "HgN/A
5:20 AM57 °FPassing clouds.16 mph88%29.86 "HgN/A
4:50 AM59 °FPassing clouds.18 mph82%29.86 "HgN/A
4:20 AM59 °FPassing clouds.16 mph82%29.86 "HgN/A
3:50 AM57 °FPassing clouds.15 mph88%29.86 "HgN/A
3:20 AM57 °FPassing clouds.16 mph88%29.89 "HgN/A
2:50 AM57 °FPassing clouds.16 mph88%29.89 "HgN/A
2:20 AM59 °FPassing clouds.15 mph82%29.89 "HgN/A
1:50 AM59 °FPassing clouds.16 mph82%29.89 "HgN/A
1:20 AM59 °FPassing clouds.17 mph82%29.89 "HgN/A
12:50 AM59 °FPassing clouds.17 mph82%29.89 "HgN/A
12:20 AM57 °FPassing clouds.14 mph88%29.89 "HgN/A
11:50 PM
Oct 19
59 °FPassing clouds.16 mph82%29.86 "HgN/A
11:20 PM57 °FPassing clouds.12 mph88%29.89 "HgN/A
10:50 PM59 °FClear.14 mph82%29.89 "Hg10 mi
10:20 PM59 °FClear.12 mph82%29.86 "Hg10 mi
9:50 PM59 °FPassing clouds.13 mph82%29.86 "HgN/A
9:20 PM61 °FPassing clouds.12 mph83%29.86 "HgN/A
8:50 PM61 °FClear.14 mph83%29.86 "Hg10 mi
8:20 PM63 °FClear.15 mph77%29.86 "Hg10 mi
7:50 PM63 °FClear.13 mph83%29.86 "Hg10 mi
7:20 PM63 °FLight rain. Clear.15 mph88%29.86 "HgN/A
6:50 PM63 °FLight rain. Clear.13 mph94%29.83 "HgN/A
6:20 PM63 °FSprinkles. Broken clouds.17 mph88%29.86 "HgN/A
5:50 PM63 °FRain showers. Partly sunny.22 mph88%29.83 "HgN/A
5:20 PM68 °FScattered showers. Broken clouds.14 mph78%29.83 "HgN/A
4:50 PM72 °FRain showers. Partly sunny.15 mph65%29.83 "HgN/A
4:20 PM72 °FScattered showers. Partly sunny.12 mph65%29.83 "HgN/A
3:50 PM72 °FPartly sunny.15 mph65%29.83 "HgN/A
3:20 PM73 °FScattered clouds.16 mph61%29.86 "HgN/A
2:50 PM73 °FScattered clouds.17 mph65%29.86 "HgN/A
2:20 PM73 °FPassing clouds.21 mph61%29.86 "HgN/A
1:50 PM73 °FPassing clouds.20 mph61%29.86 "HgN/A
1:20 PM72 °FPassing clouds.15 mph69%29.89 "HgN/A
12:50 PM70 °FPassing clouds.14 mph73%29.89 "HgN/A
12:20 PM68 °FSunny.15 mph73%29.89 "Hg10 mi
11:50 AM68 °FSunny.13 mph73%29.92 "Hg10 mi
11:20 AM66 °FSunny.13 mph78%29.92 "Hg10 mi
10:50 AM66 °FPassing clouds.14 mph78%29.92 "HgN/A
10:20 AM64 °FPassing clouds.10 mph83%29.92 "HgN/A
Weather by CustomWeather, © 2014

See weather overviewHow to use our weather pages